Location: Tauranga
(37.6860°S, 176.1670°E)
Time: 16:18:46
(UTC+13:00)

Cosmos 540 Rocket - Visible Passes

Search period start: 14 November 2019 00:00
Search period end: 24 November 2019 00:00
Orbit: 740 x 754 km, 74.1° (Epoch: 13 November)

Date Brightness Start Highest point End Pass type
(mag) Time Alt. Az. Time Alt. Az. Time Alt. Az.
14 Nov 6.2 03:26:07 10° E 03:26:51 10° E 03:27:36 10° E visible
14 Nov 3.4 05:02:33 10° NNW 05:07:40 77° WSW 05:12:51 10° SSE visible
15 Nov 4.1 04:19:56 13° N 04:24:23 52° ENE 04:29:24 10° SSE visible
16 Nov 5.3 03:37:49 13° NNE 03:41:15 25° E 03:45:25 10° SE visible
16 Nov 4.3 05:18:00 10° NW 05:22:38 34° WSW 05:27:20 10° S visible
17 Nov 6.0 02:56:24 10° ENE 02:58:16 12° E 03:00:08 10° ESE visible
17 Nov 3.5 04:35:27 19° NNW 04:39:09 68° WSW 04:44:20 10° SSE visible
18 Nov 3.9 03:53:13 27° N 03:55:51 59° ENE 04:00:56 10° SSE visible
19 Nov 5.0 03:10:55 23° NE 03:12:42 28° E 03:17:03 10° SE visible
19 Nov 4.5 04:50:45 15° WNW 04:54:10 30° WSW 04:58:43 10° S visible
20 Nov 5.8 02:28:35 13° ENE 02:29:41 14° E 02:32:11 10° ESE visible
20 Nov 3.6 04:08:25 32° NW 04:10:39 60° WSW 04:15:48 10° S visible
21 Nov 3.6 03:26:02 48° NNE 03:27:19 67° ENE 03:32:28 10° SSE visible
21 Nov 5.4 05:06:38 10° W 05:09:25 14° WSW 05:12:14 10° SSW visible
22 Nov 4.6 02:43:37 31° ENE 02:44:08 32° E 02:48:41 10° SE visible
22 Nov 4.7 04:23:27 20° WNW 04:25:41 27° WSW 04:30:06 10° S visible
23 Nov 5.6 02:01:10 16° E 02:01:10 16° E 02:04:04 10° ESE visible
23 Nov 3.7 03:40:59 44° WNW 03:42:09 54° WSW 03:47:15 10° S visible
